Theta_e
308 308 307 308 309 309 308 307 306 305 304 304 303 303 302 302 302 298 293 295 293 288 288 290 291 286 289 287 283 288 289 290 288 282 283 282 282 284 284 288 287 286 284 284 285 282 280 293 293 290 293 296 298 304
307 307 307 307 308 308 308 307 305 304 303 303 303 302 302 302 303 303 289 294 294 290 287 293 293 294 292 291 289 291 291 290 290 285 286 285 283 285 284 282 292 285 288 286 286 285 292 295 294 297 298 298 304 303
306 307 307 307 308 308 307 306 304 303 303 302 302 302 302 303 303 301 292 291 291 291 289 288 289 295 297 296 297 288 289 295 291 291 285 285 283 287 283 286 287 291 294 289 289 290 292 295 296 298 299 305 304 304
306 306 307 307 308 307 306 305 303 303 302 302 302 301 302 302 303 302 290 293 293 292 286 286 296 295 299 299 298 298 296 296 293 290 286 285 284 290 286 288 287 290 292 290 289 292 294 295 296 298 299 305 304 304
305 305 306 307 308 306 305 304 303 302 302 302 301 302 302 302 302 300 295 297 298 292 286 288 293 295 297 298 300 300 298 294 291 287 286 285 288 289 292 289 285 293 290 287 285 294 293 294 298 299 298 298 302 302
304 304 305 306 307 306 304 303 302 302 302 301 302 302 302 302 302 296 290 300 303 300 290 284 290 292 295 296 298 300 300 297 294 291 289 290 294 292 289 284 289 296 297 298 294 298 297 298 300 300 299 299 301 301
304 304 305 307 306 305 303 302 301 301 301 301 301 301 302 302 296 291 287 296 301 296 290 286 286 290 296 298 300 299 300 297 296 293 292 294 295 296 290 286 292 296 298 298 299 298 295 298 296 300 300 300 301 301
303 304 304 307 306 304 302 301 301 301 301 301 301 302 302 303 301 295 296 302 301 294 294 285 284 286 296 291 291 299 299 298 297 296 297 296 298 295 289 294 296 299 300 300 299 298 297 298 299 297 298 297 295 295
303 304 305 307 304 302 301 300 300 300 301 301 302 303 301 297 291 297 307 305 297 295 289 288 284 280 294 292 292 297 297 293 299 294 296 297 293 288 292 293 295 298 297 297 297 295 294 293 294 294 294 293 292 292
303 304 306 305 302 301 300 299 300 300 301 303 299 294 290 299 308 303 296 293 294 295 294 288 288 282 290 292 289 288 296 293 291 294 298 291 291 296 297 298 298 300 297 296 292 290 292 291 292 292 291 292 292 290
303 305 305 303 301 300 299 299 300 301 301 292 288 289 291 300 293 292 291 290 292 288 288 287 287 285 294 290 290 292 291 292 288 293 290 289 289 293 297 297 295 294 294 294 294 293 293 293 292 290 289 289 288 288
304 305 303 302 300 299 299 299 299 294 291 291 291 293 292 290 291 289 288 290 288 285 288 287 289 290 293 294 291 292 291 294 286 298 290 287 290 298 296 294 292 293 293 292 293 293 292 292 291 289 288 286 285 285
305 303 302 300 299 299 299 299 300 300 299 293 293 290 289 289 284 284 281 284 288 294 296 293 292 292 292 291 291 290 289 289 297 291 288 289 294 296 295 294 292 292 292 292 292 292 292 290 290 288 286 285 285 284
304 302 300 299 299 299 299 299 300 297 291 288 287 280 282 282 284 285 285 288 292 293 292 292 290 291 290 290 292 290 293 295 289 286 288 291 294 295 294 294 292 291 292 292 291 291 290 288 287 288 287 286 284 282
301 300 299 298 299 299 300 300 300 293 289 285 286 277 283 287 290 293 293 292 293 293 293 291 290 291 291 290 293 293 290 288 288 286 291 294 296 295 294 294 292 291 291 290 291 290 288 287 286 285 285 284 284 283
299 298 296 299 299 300 300 297 294 292 290 286 285 283 285 283 285 289 290 290 295 294 294 292 288 287 289 292 290 289 288 286 289 294 294 295 297 296 294 295 295 293 291 290 290 290 288 287 285 284 285 285 285 284
298 291 300 299 301 300 299 292 294 289 287 286 282 286 285 284 284 286 289 291 296 292 289 292 287 289 292 290 288 292 290 293 296 295 297 298 297 296 297 295 294 293 291 290 289 288 287 287 286 284 282 284 284 283
291 297 301 301 297 295 295 293 292 288 285 285 282 283 285 287 287 289 291 296 293 291 290 288 290 286 286 288 290 290 297 299 299 297 298 298 298 297 297 295 295 293 291 290 289 288 287 285 284 283 283 284 286 283
295 295 298 299 296 291 289 290 292 283 285 284 286 288 288 290 294 293 293 296 297 295 292 289 286 285 289 295 295 296 298 298 295 297 298 298 298 297 297 296 294 291 290 289 287 286 285 285 284 284 284 285 285 281
296 297 297 298 296 288 288 287 292 285 284 286 288 287 288 289 292 292 294 297 295 293 290 288 288 290 291 295 298 298 299 299 298 296 296 297 298 297 296 294 292 291 290 288 288 288 285 285 285 285 285 285 282 281
295 294 297 294 290 290 291 289 288 288 288 286 288 288 288 290 289 289 290 295 292 290 289 292 292 295 298 299 300 300 299 298 295 294 293 295 296 295 294 294 292 291 289 288 287 287 286 284 283 285 286 284 284 284
292 300 293 293 290 290 287 288 286 287 286 287 287 288 286 287 288 289 293 290 290 292 292 293 295 297 297 298 300 303 303 300 298 296 295 294 292 292 292 293 293 291 289 288 288 287 286 285 285 285 287 287 286 285
296 294 291 292 288 287 283 289 287 287 283 286 291 288 285 287 290 293 289 290 292 296 297 298 300 301 299 304 305 305 304 301 297 296 296 295 295 295 297 295 294 292 291 289 289 288 286 286 286 286 286 287 286 286
297 289 287 287 286 280 289 287 289 287 287 286 287 288 289 291 291 289 287 289 295 297 297 299 300 297 301 302 301 301 302 303 299 297 298 295 294 294 295 294 294 294 293 291 289 288 288 288 287 286 286 286 285 285
286 279 282 277 286 287 285 285 286 286 285 287 288 288 289 289 286 287 288 293 292 295 297 299 299 301 299 299 301 302 301 300 297 296 300 297 295 292 293 293 293 294 293 290 289 290 289 289 288 288 287 287 286 286
279 283 278 284 284 283 285 285 287 287 287 289 289 293 294 290 287 286 289 294 296 295 295 297 300 300 299 300 299 302 303 302 298 296 294 296 295 294 293 292 291 291 294 293 291 290 289 290 290 289 288 288 286 288
276 280 285 289 287 289 286 288 289 289 288 288 291 291 291 286 286 289 296 300 295 299 301 302 301 301 300 300 300 300 303 303 299 298 297 295 296 297 296 294 293 295 297 295 294 292 291 291 290 290 289 288 288 288
284 285 282 287 287 287 285 286 286 288 289 292 291 288 287 286 286 294 298 298 298 297 300 300 301 300 300 300 300 299 300 303 305 303 298 299 298 297 297 297 297 291 298 297 296 295 293 293 292 291 289 288 288 289
283 286 286 284 286 287 288 287 287 292 296 294 291 288 288 293 297 299 301 300 301 297 295 297 301 302 301 300 300 299 300 301 300 297 296 294 296 299 303 299 297 298 298 295 289 293 295 294 293 292 291 290 290 289
284 286 284 286 285 284 287 293 291 294 296 297 296 293 294 296 299 303 300 301 300 298 299 301 299 296 296 297 297 297 298 299 300 300 296 294 296 298 299 299 300 300 298 299 296 293 285 290 288 291 291 291 289 289
289 289 286 286 286 288 291 294 295 295 295 293 294 292 290 293 298 300 299 299 299 298 295 294 295 295 296 294 295 295 295 298 297 297 299 299 300 299 298 297 300 302 303 300 298 296 293 292 292 293 292 291 291 290
286 287 286 285 286 291 294 292 291 291 291 289 289 293 294 291 291 295 297 298 297 295 291 294 292 291 294 294 295 295 293 297 297 297 296 295 294 294 296 297 297 299 299 301 302 297 295 294 293 292 293 293 292 292
287 287 288 288 287 288 292 291 290 289 290 287 288 291 292 290 289 293 298 298 296 296 295 292 293 293 293 293 292 293 293 293 288 285 286 285 285 287 292 293 294 294 293 294 297 300 298 297 295 294 294 293 293 293
Wind_Speed
8 9 9 9 10 4 5 5 6 5 7 9 9 9 10 11 11 5 4 4 2 5 13 15 9 4 7 5 5 8 8 1 2 5 3 4 3 3 5 4 8 4 4 2 2 2 4 18 14 5 6 15 10 2
8 9 9 9 9 7 5 5 4 6 8 9 10 10 11 11 12 10 2 3 2 4 9 12 20 23 24 27 11 4 4 9 2 3 2 4 3 3 5 3 5 3 5 3 3 2 9 10 9 12 12 15 3 17
11 10 9 8 9 8 6 5 5 7 9 10 9 11 11 13 13 9 3 3 2 4 8 2 8 9 5 15 14 4 3 4 3 2 1 2 5 3 4 4 5 7 7 3 2 5 10 13 12 13 14 10 14 17
10 10 10 10 9 5 6 5 6 8 10 10 10 11 13 13 14 12 2 3 2 4 5 8 5 18 16 8 13 15 17 5 4 2 2 2 3 2 3 5 3 4 7 5 3 5 1 13 13 12 14 11 16 14
8 10 10 11 9 8 7 7 7 9 10 11 11 13 13 13 14 8 5 4 6 2 4 9 17 8 8 8 8 10 6 4 3 3 2 3 2 3 3 2 4 7 5 5 5 10 6 11 12 13 20 16 15 18
9 10 11 12 9 7 6 6 8 10 12 13 13 13 13 13 12 3 3 2 3 2 3 6 5 8 14 11 7 5 5 3 3 2 2 2 4 2 3 3 7 8 7 6 6 10 12 14 15 17 19 20 19 18
11 11 11 12 9 8 7 8 10 11 13 14 14 14 14 12 1 3 5 3 3 4 2 5 6 7 8 5 2 2 1 1 2 2 2 2 1 2 2 2 5 8 5 3 2 4 15 16 13 16 18 19 22 20
13 11 12 11 10 9 7 9 11 13 15 16 16 15 15 12 9 6 7 18 9 2 2 3 6 6 3 4 4 1 1 1 2 2 2 1 2 2 2 6 7 7 7 4 5 3 6 7 11 14 15 16 19 17
12 12 12 12 10 9 7 9 11 14 17 18 17 19 3 2 3 4 4 5 3 3 2 3 3 5 5 3 3 3 2 1 2 2 3 3 1 1 6 4 4 3 2 7 5 12 12 14 15 14 13 13 14 14
13 13 12 12 10 8 7 9 11 14 18 20 3 1 2 3 5 4 3 2 3 3 3 4 2 5 2 2 4 4 3 1 1 3 2 3 1 1 3 5 3 4 10 11 11 9 11 11 12 12 13 11 11 11
12 12 13 12 10 8 7 8 10 13 10 3 3 2 4 10 2 2 3 4 3 4 4 5 6 4 2 2 2 1 4 3 2 2 4 2 2 3 1 8 6 12 14 12 12 10 10 10 10 10 11 12 11 11
12 14 14 12 9 8 7 7 7 4 1 3 3 4 3 2 3 3 4 3 5 5 4 4 6 6 3 2 1 3 3 1 3 1 2 3 4 4 11 11 8 11 14 13 12 13 12 13 11 11 10 10 9 8
14 15 13 11 9 8 7 7 6 6 6 2 2 3 2 2 4 5 5 4 3 2 4 4 4 4 1 1 3 2 4 3 1 1 4 3 5 10 11 11 10 9 12 13 13 14 14 13 11 9 8 6 6 6
16 15 12 10 9 9 8 8 6 3 0 2 3 4 5 5 6 6 5 3 5 2 2 2 2 4 3 2 3 4 4 2 2 2 3 4 12 13 11 9 10 7 8 9 10 11 12 11 9 9 7 4 4 5
14 12 10 9 11 10 9 9 6 1 2 3 3 5 6 6 3 3 4 3 2 1 2 4 3 3 2 3 3 2 3 3 4 4 4 7 12 13 12 12 10 8 8 9 10 10 10 9 8 6 4 4 5 5
13 8 6 10 11 10 6 3 2 2 2 3 5 4 5 2 4 3 1 2 2 1 2 1 2 2 4 3 2 4 2 3 3 3 5 7 11 10 11 12 11 10 10 9 9 9 9 8 7 6 3 3 3 4
11 4 10 14 10 9 6 1 3 5 5 5 5 5 7 4 5 5 3 4 1 3 1 1 3 2 4 2 2 4 2 2 3 3 5 7 11 11 11 13 12 11 10 9 8 8 7 7 6 5 3 1 4 5
3 3 14 11 7 3 2 3 3 4 7 5 4 4 3 4 5 5 4 2 3 3 2 2 0 2 3 4 2 3 3 4 4 4 5 7 9 13 12 13 11 11 9 8 7 6 7 7 6 4 5 5 5 3
5 5 8 6 4 2 3 4 3 4 7 4 6 6 4 5 5 4 3 3 3 3 4 2 2 3 3 1 2 3 3 1 2 2 4 7 11 12 11 12 11 8 8 7 7 5 5 7 5 4 4 5 5 3
3 3 5 4 4 2 3 3 4 4 4 5 3 5 4 5 5 4 5 4 5 4 2 4 5 4 4 3 4 3 3 3 5 7 5 4 6 10 10 9 6 7 7 6 5 6 4 4 3 3 3 5 5 3
7 5 10 6 2 2 3 3 4 5 5 4 4 1 4 2 2 3 3 2 3 4 4 5 4 5 4 3 4 3 4 5 4 4 5 5 4 6 5 6 8 5 6 5 4 5 5 4 4 4 4 4 4 4
2 8 4 5 3 4 4 5 4 4 3 4 4 4 3 3 3 3 3 2 3 4 5 4 3 3 2 4 4 5 5 6 6 5 5 7 4 4 4 6 7 6 6 5 6 6 4 4 4 4 5 5 5 4
3 3 2 4 5 3 7 2 3 4 3 4 1 2 3 1 0 1 1 3 4 3 4 3 3 4 4 3 1 1 6 7 5 5 5 5 4 4 4 4 7 8 6 3 6 6 6 6 5 5 4 5 4 5
1 2 3 4 6 5 4 4 4 3 3 3 3 4 5 4 0 1 3 3 3 1 2 1 2 1 1 3 1 3 4 6 5 5 5 5 4 4 5 6 5 5 7 8 7 6 6 6 7 5 5 5 5 4
3 5 4 5 4 4 5 4 5 2 4 4 3 4 3 2 2 3 3 1 0 1 1 2 4 2 1 1 3 3 4 6 7 7 6 7 4 4 4 4 5 7 9 9 7 8 7 7 7 7 7 7 7 7
3 4 6 4 4 4 4 3 3 4 3 3 3 3 1 2 3 1 1 2 1 2 1 1 3 3 1 2 2 4 4 2 4 7 4 7 8 9 8 8 7 4 6 8 10 10 9 8 8 9 7 7 8 9
3 5 5 4 3 2 4 4 3 4 5 3 3 1 1 1 2 0 3 1 3 1 1 3 3 5 3 3 1 3 3 4 3 6 6 6 7 9 10 10 10 8 9 10 10 11 11 10 10 9 7 5 5 7
5 4 3 3 3 4 4 3 4 2 5 4 2 2 1 1 1 3 0 1 4 3 4 4 4 4 3 3 5 5 4 7 5 4 5 5 4 3 3 4 5 13 10 11 11 9 9 9 10 11 9 8 7 5
4 3 1 5 5 4 4 6 3 2 2 2 2 2 1 1 1 2 1 2 3 4 4 4 4 4 5 4 5 4 4 5 5 10 11 4 5 6 5 3 6 8 8 7 9 10 12 10 10 11 12 9 8 6
5 4 2 4 3 4 3 0 2 2 2 2 3 3 3 2 2 2 3 2 2 3 3 4 3 4 4 4 5 7 7 6 7 5 5 5 2 2 4 5 4 2 5 8 9 5 4 4 4 4 7 5 5 4
1 2 3 3 3 4 4 0 4 3 3 3 3 3 3 2 2 5 6 3 5 7 6 6 5 4 4 3 3 4 4 4 7 9 6 5 5 4 5 5 4 5 4 6 8 9 7 6 7 9 11 10 11 9
4 6 3 2 3 4 1 3 3 3 2 2 0 2 2 3 3 4 7 3 7 6 5 6 6 5 4 4 3 4 6 3 4 4 8 5 4 6 6 5 6 6 6 6 2 6 11 12 9 9 10 13 13 13
4 4 3 3 1 2 4 3 2 3 2 2 3 3 3 3 3 1 3 7 3 5 6 5 4 5 7 7 7 6 6 6 7 6 8 6 4 4 4 4 3 4 5 4 3 3 8 10 9 10 11 11 12 15
Wind_Direction
281 287 293 295 299 287 275 274 282 306 309 311 318 325 331 329 321 325 271 252 213 262 285 259 264 253 285 271 277 316 318 6 316 359 339 339 293 319 302 296 325 359 302 44 310 306 317 347 335 38 331 299 294 91
277 281 284 288 295 266 242 250 272 294 299 303 307 318 322 317 313 319 275 265 216 236 257 285 274 261 251 253 269 242 265 302 285 321 343 305 306 309 303 297 332 25 343 350 22 1 303 321 310 299 294 267 147 110
282 283 278 280 275 256 240 236 266 286 295 300 308 314 312 309 313 312 249 251 296 259 282 275 256 264 223 230 214 245 251 188 171 149 270 280 282 317 315 350 305 348 6 11 294 358 330 354 349 344 332 105 118 115
277 281 280 280 270 234 238 240 266 283 290 294 304 304 303 314 319 315 220 232 190 266 293 281 289 293 289 245 218 209 235 88 94 130 201 266 271 285 315 323 322 316 302 341 302 337 287 18 9 6 25 82 106 104
269 281 275 278 241 234 226 242 268 281 287 292 298 299 308 313 320 316 251 244 217 209 292 293 309 267 288 289 286 223 184 136 135 155 196 236 262 271 297 355 347 341 337 34 43 17 43 39 23 37 48 54 77 98
268 271 267 277 235 229 238 259 272 281 286 293 296 304 307 310 329 319 322 300 27 145 297 301 282 289 305 309 308 146 140 131 132 171 199 216 227 241 31 18 292 353 11 10 27 38 43 48 49 49 60 65 63 73
260 264 258 269 216 220 235 260 273 283 288 292 296 297 297 296 271 221 210 210 214 32 269 295 294 280 281 296 317 74 99 124 136 185 234 244 292 166 36 38 269 301 308 19 94 54 59 47 56 56 58 59 63 63
261 258 255 234 213 221 232 263 281 289 292 294 294 293 292 285 283 264 251 250 239 229 253 283 277 311 304 321 327 195 159 170 185 262 281 323 102 90 76 261 266 263 268 283 308 39 121 103 82 70 61 56 53 53
252 247 254 216 204 217 236 265 283 292 294 295 296 296 274 142 211 234 210 124 155 182 249 213 261 276 351 330 284 298 191 230 172 224 224 144 125 179 194 234 276 239 186 138 98 82 75 71 71 65 69 68 71 58
244 242 237 188 201 218 246 273 290 298 299 297 294 205 250 205 227 79 33 144 195 212 216 249 286 270 23 334 302 345 279 22 248 250 98 76 20 315 222 233 286 278 121 130 115 97 92 77 75 70 66 63 68 68
236 245 185 188 200 215 244 275 296 316 323 33 7 285 255 291 60 198 244 212 157 226 211 228 208 234 256 232 276 288 316 256 240 263 117 147 156 256 39 95 96 88 90 79 86 86 81 92 91 79 66 64 61 61
239 190 180 190 202 217 238 264 292 333 201 215 249 279 287 332 225 239 226 215 197 234 186 199 227 193 234 131 234 241 261 179 243 209 76 152 194 171 117 108 88 92 90 84 84 87 83 80 83 82 77 71 66 61
195 180 186 195 203 216 238 255 270 276 312 323 183 245 226 255 225 215 221 242 218 160 200 221 269 173 99 174 244 251 257 241 191 68 174 205 150 127 122 117 110 111 107 106 100 93 89 88 80 81 79 68 76 73
180 175 185 196 212 221 230 240 261 304 257 196 226 239 199 208 241 199 211 222 248 178 303 270 261 183 188 193 221 258 244 255 162 170 209 160 142 134 134 127 117 113 114 116 114 107 102 99 93 89 89 81 56 44
168 174 187 211 220 228 228 239 236 155 194 235 234 238 229 233 273 278 255 308 286 232 20 333 319 141 222 255 238 301 268 251 179 202 168 146 142 139 140 126 120 111 104 98 116 111 110 111 107 108 120 125 120 107
160 165 211 210 208 211 176 190 211 204 251 227 241 266 273 345 288 318 344 284 264 334 320 101 263 299 242 213 288 235 263 241 240 163 140 131 134 134 138 127 122 119 114 112 118 126 127 131 139 148 141 98 72 92
159 219 190 187 179 165 169 176 198 216 224 230 245 219 253 264 237 245 225 237 217 74 285 335 248 263 302 233 243 289 249 242 151 92 116 125 138 131 117 119 121 119 118 120 121 131 134 138 137 127 150 95 87 72
218 192 141 148 130 162 201 204 236 234 240 236 245 248 224 214 231 263 257 214 115 152 125 221 326 296 274 324 4 257 304 19 23 98 107 111 117 122 125 127 127 130 130 124 123 126 138 142 156 186 173 149 119 112
121 105 122 141 145 180 183 210 220 253 243 234 244 250 236 242 224 223 221 211 164 146 115 131 217 231 246 181 180 233 277 221 136 74 90 108 117 122 126 131 137 137 135 136 132 133 143 162 169 160 156 144 155 154
169 190 200 185 148 206 242 240 168 242 264 235 223 232 216 228 229 208 227 170 148 155 175 218 213 216 208 227 213 230 191 167 126 117 116 117 135 137 144 138 147 133 129 125 126 116 111 89 77 111 129 140 147 156
168 206 181 155 187 238 275 262 227 222 252 242 266 260 246 265 237 214 222 165 123 183 222 223 227 251 264 247 240 198 169 146 160 152 158 147 149 134 131 142 134 131 138 148 143 142 131 151 166 133 122 123 133 137
202 150 128 197 226 214 236 231 225 280 277 254 304 201 241 272 237 227 182 131 206 220 197 209 213 217 259 282 274 190 167 157 154 129 113 115 123 125 162 147 146 158 156 153 140 145 145 142 131 125 129 132 127 126
346 135 212 172 223 244 255 154 212 254 242 253 10 282 247 207 211 23 134 221 243 231 195 203 219 205 209 259 79 326 180 155 152 156 161 176 165 161 153 145 144 146 149 137 135 135 140 144 137 128 126 118 126 143
154 175 220 205 194 243 250 217 216 241 247 234 222 209 206 180 145 140 236 220 217 255 151 206 133 185 186 80 310 256 225 175 160 165 160 138 154 178 148 154 137 132 137 133 136 138 146 145 142 147 146 147 147 154
189 268 148 265 258 234 242 228 203 257 261 249 276 258 185 111 135 205 238 336 251 161 66 69 151 104 36 271 242 208 157 152 158 159 167 158 125 97 102 118 128 138 142 133 147 155 157 157 163 169 175 172 167 167
212 239 177 219 229 212 240 298 348 2 301 260 284 106 323 139 203 228 53 264 109 91 63 81 151 157 111 11 78 30 346 337 111 135 164 152 150 148 152 148 146 171 176 157 153 159 163 170 171 176 181 176 174 170
242 256 230 225 254 323 288 282 254 205 224 230 194 134 60 328 62 347 258 281 113 74 60 60 74 95 87 79 85 280 319 357 157 168 161 161 159 160 159 165 182 184 165 166 164 166 171 171 173 180 178 167 174 170
245 271 227 266 243 220 250 278 271 24 336 324 37 49 104 12 287 249 293 80 112 89 77 73 74 76 62 58 55 353 358 355 344 102 104 51 58 51 172 161 137 148 161 168 170 171 174 171 171 177 177 179 187 190
240 254 242 264 260 246 236 207 227 174 192 335 17 66 81 203 240 11 51 115 110 93 80 80 80 76 69 50 44 10 15 14 35 99 105 86 58 6 358 107 145 158 162 159 172 171 178 172 169 172 177 183 188 180
240 184 237 245 228 230 233 188 181 194 65 132 100 55 53 27 353 108 100 114 107 118 130 106 104 77 77 83 66 42 17 18 42 86 114 102 89 328 10 57 66 72 173 170 172 165 110 127 93 122 148 156 168 176
282 59 213 219 255 265 282 121 68 49 24 38 33 110 152 153 42 33 24 23 90 89 77 77 59 52 80 59 82 99 77 20 51 55 55 69 45 15 26 17 7 37 29 185 175 175 174 171 175 174 176 178 186 184
190 190 217 231 261 265 154 104 97 85 24 21 266 157 98 71 69 33 353 5 86 83 78 80 74 43 33 42 45 71 105 117 87 74 67 59 37 11 16 17 15 18 343 349 199 186 184 181 178 181 182 186 191 192
201 220 236 241 283 347 21 76 98 118 169 212 245 192 92 97 110 359 13 11 48 103 115 113 104 77 64 57 37 29 48 72 76 81 86 70 61 15 6 2 345 308 317 331 339 356 191 195 188 191 197 196 193 198